"Pseudo-MPEC" for xkos370

Created 2023 Nov 26 15:22:12 UT using Find_Orb

Click here for an explanation of pseudo-MPECs

 
 Astrometry: 
     xkos370*KB2023 11 21C#/`:b:qZZ7kEhbUc?7Astrometryy`u[c(Lj4IGw/b9#07;H\`jL87
     xkos370 KB2023 11 21DoSda-$\3_F+ALO/uv,^^E;?/S4W5NHZCUx*bAO;A4\mckh`QxPAL87
     xkos370 KB2023 11 21=_N+qdY?x#Nva7R\@m#UOprt8X%1U:(nh4eRm**JYfJ2HD%Ly.BrL87
     xkos370 KC2023 11 21(5*-S;GD16XvB%[MPn-r@dEjpTgh6LD/B:WfKmx5#]-+J##jB?52474
     xkos370 KC2023 11 215CyWZU*XeLrvlxiDX!7u/Byfyi.rXu.N?6*#HI)tEurhsLFu=u^9474
     xkos370 KC2023 11 21tJ8=31v.sR\8B@pjiyd4O7VHc#C[R't',gD?Rt'KL==n^38'g#p:474
     xkos370 KC2023 11 21LW)bl6CA=).;H`6)eG\e_J#@7j-t=K,gx6e?-n'IqA_,!!Cf:mj[474
     xkos370 KC2023 11 21^JKEyBp+w8]3##AK*redacted;DBL)w2^xUKmoN:sS_rP0WM;`%r474
     xkos370 (C2023 11 22[P%M(bJoGJLo'uwunclickQ5A[ER.GGH?*0vc]$LasMdxy3YN1TBL81
     xkos370 (C2023 11 22i=whJ+iqSIk7ZgUqE[Ys.wKa0*5A817\O4$S?nJMq;dQ\s#(T\UbL81
     xkos370 0B2023 11 223ICd^?VJVlSkq,d?076VBbOED*[ylnYpkw.0TXg12K=vjNh[.DWpM49
     xkos370 0B2023 11 22M;W7n$+(NP%\a3;(4:_xj*Xe4v*PRyaiHeNP9$UP?CEGWKap#R)dM49
     xkos370 0B2023 11 22?=g;qm!26IxSkCcub,@0=FK3IW4SB-pcIr4pNFaQx%+DHH?eT`OqM49
     xkos370 KB2023 11 22`T*/2r.Z3q]_+-g+n?*t$NvLm;Z-jQmE5W1bs?B`jYOfgZ[`dUl+L87
     xkos370 KB2023 11 22D:G$Gk/o6y!;yt7`dp:9\'N=h8L`_2+yY/JsI;LOpg)k$CUt]I0dL87
     xkos370 KB2023 11 22w(,iTmN@R'S;(X4+s`[C'4here+aDYDGjbDrIgp!HwTcY2Re_l)tL87
     xkos370 1C2023 11 22q%%;9#)e:U4(5*x6ROkp/WHN=nNFhl=HK3aN)DmDS\hfXYs-$Cp[Z84
     xkos370 1C2023 11 22EDx9rx(pPi)kqf5?0h!60AnC:VG7L]\K[PC4X*b_gSWSBvddQTtrZ84
     xkos370 |C2023 11 22#g3?$9for;d^kbLI$VecCrtP:JnX!IRtJamje,lq*K3VN729T/eO807
     xkos370 |C2023 11 22`YyT7!Wju7:\*^!7Qexplanation\b5-ul\fXO@B;o(tI62JHVy_807
     xkos370 |C2023 11 22J5D/65:LwO4LAp8Ty2v:\$i+n!U1TV[ijYi*`fZtlUD^/Cp+^Rc'807
     xkos370 4B2023 11 2472(F(mT^Nw8sW'#=G7kmG5QVXp.%wF7Yl@LGXUDqNUR+LTw=GDRyX06
     xkos370 4B2023 11 24e![/vY/3l-?#ft!7WC-]w*!EN-x)rSETbAgL/Y(pR+6`'(=K6!tVX06

Station data:
(474) Mount John Observatory, Lake Tekapo  (S43.987385 E170.464960)  New
   Zealand.  Observers A. C. Gilmore, P. M. Kilmartin. Measurer P. M.
   Kilmartin. 1.0-m f/7.7 reflector + CCD.
(807) Cerro Tololo Observatory, La Serena  (S30.169133 W70.805900)  Chile.
   Observer R. Holmes. 0.61-m f/6.5 astrograph + CCD.
(L81) Skygems Namibia Remote Observatory  (S23.236420 E16.361690)  Namibia.
   Observers L. Buzzi, L. Demetz. Measurers L. Buzzi, G. Galli, A. Aletti.
   0.51-m f/6.7 astrograph + CCD.
(L87) Moonbase South Observatory, Hakos  (S23.236420 E16.361890)  Namibia.
   Observer G. Duszanowicz. 0.36-m f/7.7 reflector + CCD.
(M49) IAS Remote Observatory, Hakos  (S23.236549 E16.361720)  Namibia.
   Observers D. Husar, M. Junius. Measurer D. Husar. 0.25-m f/4.6 reflector +
   CCD.
(X06) Skygems Chile, Rio Hurtado  (S30.526438 W70.853510)  Chile.  Observers
   L. Demetz, D. Husar. Measurer D. Husar. 0.40-m f/6.6 reflector + CCD.
(Z84) Calar Alto-Schmidt  (N37.224046 W2.548210)  Spain.  Observer M. Micheli.
    Measurers E. Schwab, D. Koschny, M. Micheli. 0.8-m f/3 Schmidt + CCD.

Orbital elements:  xkos370
   Perihelion 2024 Feb 23.52498 +/- 0.145 TT = 12:35:58 (JD 2460364.02498)
Epoch 2023 Nov 24.0 TT = JDT 2460272.5   Earth MOID: 0.0371      AutoNEOCP
M 185.23436880 +/- 0.014            (J2000 ecliptic)
n   1.90948555 +/- 0.00286          Peri.   11.10123 +/- 0.017
a   0.64346529 +/- 0.000643         Node   235.12298 +/- 0.06
e   0.5012205 +/- 0.00141           Incl.   24.65821 +/- 0.17
P   0.52/188.53d           H 20.54  G  0.15   U  8.8
q 0.32094725 +/- 0.00123    Q 0.96598334 +/- 6.09e-5
From 23 observations 2023 Nov. 21-24; mean residual 0".45
Residuals in arcseconds: 
231121 L87  1.1-  .48+    231122 L81  .28+  1.0+    231122 Z84  .23+  .54-    
231121 L87  .08-  .26-    231122 L81  1.3-  .48+    231122 Z84  .17+  .00     
231121 L87  .03+  .65-    231122 M49  .09+  .09-    231122 807  .25+  .12-    
231121 474  .04+  .05+    231122 M49  .13+  .37-    231122 807  .21+  .07+    
231121 474  .01+  .11+    231122 M49  .26+  .41-    231122 807  .34+  .04-    
231121 474  .12+  .34+    231122 L87  .32+  .33-    231124 X06  .58+  .79-    
231121 474  .09+  .05+    231122 L87  .28+  .14-    231124 X06  .97-  .84+    
231121 474  .27+  .15+    231122 L87  .09-  .03-    

Ephemerides (geocentric):
Date (UTC) HH   RA             Dec           delta  r     elong  mag " sig PA
---- --------  ------------   ------------  ------ ------ -----  --- --------
2023 11 26 15  10 06 19.905   -41 51 30.88  .13846 .96369  76.3 19.6 .730 164
2023 11 26 16  10 06 19.413   -42 00 02.45  .13848 .96366  76.3 19.6 .748 163
2023 11 26 17  10 06 18.924   -42 08 33.91  .13849 .96362  76.3 19.6 .767 163
2023 11 26 18  10 06 18.439   -42 17 05.26  .13851 .96359  76.3 19.6 .785 163
2023 11 26 19  10 06 17.956   -42 25 36.50  .13853 .96355  76.3 19.6 .804 162
2023 11 26 20  10 06 17.477   -42 34 07.62  .13855 .96351  76.3 19.6 .823 162
2023 11 26 21  10 06 17.001   -42 42 38.61  .13857 .96348  76.3 19.6 .842 161
2023 11 26 22  10 06 16.528   -42 51 09.48  .13859 .96344  76.3 19.6 .862 161
2023 11 26 23  10 06 16.059   -42 59 40.20  .13861 .96340  76.3 19.6 .881 161
2023 11 27 00  10 06 15.593   -43 08 10.79  .13863 .96336  76.2 19.6 .901 160
2023 11 27 01  10 06 15.130   -43 16 41.23  .13865 .96332  76.2 19.6 .921 160
2023 11 27 02  10 06 14.671   -43 25 11.51  .13868 .96329  76.2 19.6 .941 160
2023 11 27 03  10 06 14.215   -43 33 41.64  .13870 .96325  76.2 19.6 .962 159
2023 11 27 04  10 06 13.763   -43 42 11.60  .13872 .96321  76.2 19.6 .983 159
2023 11 27 05  10 06 13.314   -43 50 41.39  .13875 .96317  76.2 19.6 1.00 159
2023 11 27 06  10 06 12.869   -43 59 11.00  .13878 .96313  76.2 19.6 1.02 158
2023 11 27 07  10 06 12.427   -44 07 40.43  .13880 .96309  76.2 19.6 1.05 158
2023 11 27 08  10 06 11.989   -44 16 09.68  .13883 .96305  76.1 19.6 1.07 158
2023 11 27 09  10 06 11.555   -44 24 38.73  .13886 .96301  76.1 19.6 1.09 157
2023 11 27 10  10 06 11.124   -44 33 07.59  .13889 .96297  76.1 19.6 1.11 157
2023 11 27 11  10 06 10.697   -44 41 36.24  .13892 .96293  76.1 19.6 1.13 157
2023 11 27 12  10 06 10.273   -44 50 04.69  .13895 .96289  76.1 19.6 1.16 157
2023 11 27 13  10 06 09.853   -44 58 32.92  .13898 .96284  76.1 19.6 1.18 156
2023 11 27 14  10 06 09.438   -45 07 00.93  .13902 .96280  76.1 19.6 1.20 156
2023 11 27 15  10 06 09.025   -45 15 28.71  .13905 .96276  76.1 19.6 1.22 156
2023 11 27 16  10 06 08.617   -45 23 56.26  .13909 .96272  76.0 19.6 1.25 156
2023 11 27 17  10 06 08.213   -45 32 23.58  .13912 .96268  76.0 19.6 1.27 156
2023 11 27 18  10 06 07.812   -45 40 50.66  .13916 .96263  76.0 19.6 1.29 155
2023 11 27 19  10 06 07.415   -45 49 17.49  .13919 .96259  76.0 19.6 1.32 155
2023 11 27 20  10 06 07.023   -45 57 44.07  .13923 .96255  76.0 19.6 1.34 155
2023 11 27 21  10 06 06.634   -46 06 10.39  .13927 .96250  76.0 19.6 1.36 155
2023 11 27 22  10 06 06.249   -46 14 36.44  .13931 .96246  76.0 19.6 1.39 155
2023 11 27 23  10 06 05.869   -46 23 02.23  .13935 .96241  76.0 19.6 1.41 154
2023 11 28 00  10 06 05.492   -46 31 27.75  .13939 .96237  75.9 19.6 1.44 154
2023 11 28 01  10 06 05.120   -46 39 52.99  .13943 .96232  75.9 19.6 1.46 154
2023 11 28 02  10 06 04.752   -46 48 17.94  .13947 .96228  75.9 19.6 1.49 154
2023 11 28 03  10 06 04.388   -46 56 42.61  .13951 .96223  75.9 19.6 1.51 154
2023 11 28 04  10 06 04.028   -47 05 06.98  .13956 .96219  75.9 19.6 1.54 153
2023 11 28 05  10 06 03.672   -47 13 31.05  .13960 .96214  75.9 19.6 1.56 153
2023 11 28 06  10 06 03.321   -47 21 54.81  .13965 .96210  75.9 19.6 1.59 153
2023 11 28 07  10 06 02.975   -47 30 18.27  .13969 .96205  75.8 19.6 1.61 153
2023 11 28 08  10 06 02.632   -47 38 41.41  .13974 .96200  75.8 19.6 1.64 153
2023 11 28 09  10 06 02.294   -47 47 04.23  .13979 .96196  75.8 19.6 1.66 153
2023 11 28 10  10 06 01.961   -47 55 26.73  .13984 .96191  75.8 19.6 1.69 153
2023 11 28 11  10 06 01.632   -48 03 48.89  .13988 .96186  75.8 19.6 1.72 152
2023 11 28 12  10 06 01.307   -48 12 10.72  .13993 .96181  75.8 19.6 1.74 152
2023 11 28 13  10 06 00.987   -48 20 32.21  .13998 .96176  75.8 19.6 1.77 152
2023 11 28 14  10 06 00.672   -48 28 53.36  .14004 .96172  75.7 19.6 1.80 152